Date,TemperatureHighF,TemperatureAvgF,TemperatureLowF,DewpointHighF,DewpointAvgF,DewpointLowF,HumidityHigh,HumidityAvg,HumidityLow,PressureMaxIn,PressureMinIn,WindSpeedMaxMPH,WindSpeedAvgMPH,GustSpeedMaxMPH,PrecipitationSumIn
2013-1-1,62,57,55,46,45,44,71,65,57,29.82,29.75,9,4,11,0.00
2013-1-2,59,53,47,49,46,44,99,76,60,30.01,29.87,14,5,19,0.00
2013-1-3,62,53,48,50,48,46,99,85,66,30.38,30.17,12,6,16,0.02
2013-1-4,66,51,38,44,40,38,99,72,44,30.35,30.24,11,4,13,0.00
2013-1-5,62,51,39,51,43,37,94,76,55,30.16,30.02,4,2,4,0.00
2013-1-6,76,58,51,44,42,41,71,59,34,30.05,30.02,7,3,8,0.00
2013-1-7,74,51,40,54,49,38,99,94,43,29.97,29.92,3,2,4,0.00
2013-1-8,68,52,40,56,49,39,99,90,60,30.03,30.00,6,3,8,0.00
2013-1-9,63,41,37,49,39,37,99,95,61,29.97,29.94,13,3,13,0.00
2013-1-10,56,54,51,47,47,47,84,77,73,29.85,29.84,10,8,11,0.00
2013-1-17,47,46,46,42,42,42,86,85,83,29.55,29.54,4,4,5,0.00
2013-1-18,65,58,52,55,50,44,86,75,62,29.49,29.27,9,4,12,0.00
2013-1-19,60,56,52,59,55,52,99,94,86,29.10,28.81,17,8,23,0.17
2013-1-20,53,52,50,50,45,38,97,80,57,29.32,28.95,14,8,15,0.09
2013-1-21,60,54,53,48,45,35,82,73,50,29.53,29.29,16,6,21,0.07
2013-1-22,55,45,40,47,38,34,86,78,65,29.59,29.39,15,5,19,0.00
2013-1-23,53,50,48,38,34,31,64,55,51,29.54,29.37,23,14,23,0.46
2013-1-24,52,50,48,50,46,42,99,89,78,29.46,29.32,22,6,23,0.47
2013-1-25,57,47,43,40,37,36,79,70,53,29.66,29.57,11,3,12,0.01
2013-1-26,49,46,43,47,45,43,99,96,89,29.84,29.47,6,2,6,0.07
2013-1-27,60,49,41,53,46,40,99,91,76,29.80,29.70,8,3,8,0.00
2013-1-28,57,53,48,49,46,42,99,80,60,30.01,29.77,15,8,16,0.20
2013-1-29,68,49,41,53,47,41,99,96,55,30.13,30.07,6,2,6,0.00
2013-1-30,69,49,38,54,46,38,99,92,54,30.08,30.05,9,2,9,0.00
2013-1-31,71,56,44,59,48,43,99,79,58,30.17,30.11,4,2,4,0.00
2013-2-1,60,54,46,60,53,46,99,97,89,29.97,29.63,5,2,6,0.00
2013-2-2,56,53,50,46,42,38,81,66,58,29.55,29.36,38,20,38,2.24
2013-2-3,52,49,43,34,30,28,69,51,41,30.01,29.69,23,7,26,1.87
2013-2-4,58,48,39,44,39,37,98,76,51,30.12,30.03,6,3,8,0.00
2013-2-5,65,51,39,47,43,39,99,78,52,29.95,29.77,12,3,15,0.05
2013-2-6,54,52,50,39,37,34,67,58,47,29.60,29.50,34,20,34,0.00
2013-2-7,55,52,49,40,30,20,71,49,28,29.76,29.61,14,10,21,0.00
2013-2-8,52,48,43,41,39,38,88,72,61,29.68,29.60,13,5,18,0.00
2013-2-9,48,43,37,37,33,26,90,70,49,29.90,29.79,15,3,17,0.00
2013-2-10,64,54,46,50,44,37,85,70,39,29.79,29.47,17,9,20,0.00
2013-2-11,56,52,48,44,36,32,85,58,45,29.44,29.34,25,10,31,0.08
2013-2-12,52,50,47,41,38,32,75,65,49,29.66,29.40,27,10,30,0.06
2013-2-13,59,52,47,42,40,38,78,66,48,29.78,29.67,8,4,11,0.00
2013-2-14,58,50,45,46,44,43,93,83,63,29.93,29.88,5,2,5,0.00
2013-2-15,57,51,43,53,46,42,99,83,71,29.89,29.83,10,5,11,0.00
2013-2-16,65,51,46,50,48,45,99,90,57,29.92,29.83,4,2,4,0.00
2013-2-17,55,52,46,54,52,46,99,98,91,29.77,29.66,4,2,4,0.00
2013-2-18,56,54,51,56,54,51,99,99,99,29.66,29.60,4,2,5,0.30
2013-2-19,59,55,51,55,48,42,99,80,56,29.72,29.64,9,6,11,0.00
2013-2-20,46,46,46,41,41,40,83,82,81,29.65,29.63,4,3,4,0.00
2013-3-1,58,54,49,48,46,44,93,74,64,29.46,29.01,11,6,13,0.01
2013-3-2,61,52,49,41,40,37,72,64,49,29.78,29.69,14,4,17,0.00
2013-3-3,67,55,42,50,43,38,92,67,37,29.79,29.70,10,4,10,0.00
2013-3-4,64,57,52,57,55,52,99,94,69,29.62,29.44,13,7,18,0.01
2013-3-5,70,61,58,59,56,50,99,88,52,29.29,29.04,15,6,17,0.07
2013-3-6,71,61,55,56,55,52,99,84,57,29.29,29.03,22,8,22,0.01
2013-3-7,75,60,54,59,56,51,99,87,45,29.44,29.38,9,4,11,0.00
2013-3-8,73,63,56,57,52,45,99,73,40,29.51,29.42,20,8,20,0.00
2013-3-9,73,63,57,58,50,46,98,66,41,29.49,29.43,13,6,16,0.00
2013-3-10,68,64,56,51,46,41,80,56,40,29.41,29.37,21,9,24,0.00
2013-3-11,68,60,51,50,45,42,84,60,44,29.44,29.36,19,7,22,0.00
2013-3-12,65,57,51,45,43,39,75,61,42,29.35,29.27,19,7,21,0.00
2013-3-13,66,47,42,54,46,42,99,94,63,29.33,29.08,21,7,25,0.33
2013-3-14,55,51,46,34,31,26,61,48,36,29.50,29.41,29,16,34,0.02
2013-3-15,57,50,47,34,32,29,56,51,39,29.80,29.65,17,9,22,0.00
2013-3-16,57,51,38,46,43,37,96,76,58,29.77,29.63,7,3,11,0.00
2013-3-17,69,58,47,59,51,44,99,82,48,29.45,29.22,11,4,15,0.02
2013-3-18,65,56,50,56,44,33,99,68,39,29.51,29.25,18,5,18,0.12
2013-3-19,68,59,47,54,52,47,99,79,58,29.48,29.37,9,6,13,0.00
2013-3-20,65,58,52,53,48,42,99,76,47,29.65,29.31,15,6,15,0.00
2013-3-21,64,56,46,58,53,45,99,92,76,29.86,29.72,11,4,13,0.00
2013-3-22,67,57,7,59,55,6,99,93,68,29.58,29.46,15,4,15,0.02
2013-3-23,68,58,54,56,54,49,99,88,55,29.44,29.33,13,4,17,0.00
2013-3-24,67,59,51,60,52,47,99,78,58,29.32,29.25,11,4,15,0.00
2013-3-25,68,62,56,55,46,39,87,61,37,29.49,29.41,17,10,17,0.00
2013-3-26,72,66,58,58,52,48,99,67,45,29.41,29.33,21,6,21,0.02
2013-3-27,71,60,56,58,55,48,99,88,48,29.34,29.28,15,4,18,0.01
2013-3-28,74,61,57,58,56,51,99,87,47,29.58,29.39,8,3,13,0.00
2013-3-29,72,61,55,60,58,52,99,92,52,29.58,29.44,15,6,17,0.00
2013-3-30,70,66,63,49,43,38,52,45,37,29.54,29.37,32,13,32,0.02
2013-3-31,62,60,58,58,53,42,99,80,52,29.50,29.40,9,4,10,0.00
2013-4-1,69,62,57,58,49,43,99,66,47,29.34,29.15,17,7,19,0.17
2013-4-2,70,61,47,56,46,37,99,63,35,29.51,29.39,15,6,17,0.00
2013-4-3,69,61,48,49,44,40,87,59,37,29.51,29.31,9,4,10,0.00
2013-4-4,70,61,56,54,50,47,88,69,49,29.31,29.19,15,6,17,0.00
2013-4-5,65,56,50,52,50,46,99,81,52,29.45,29.33,17,8,17,0.18
2013-4-6,55,50,47,45,40,38,85,70,59,29.68,29.52,20,6,20,0.07
2013-4-7,68,57,51,45,41,29,77,60,27,29.73,29.68,10,6,15,0.00
2013-4-8,68,58,48,55,49,45,99,74,46,29.62,29.55,21,5,21,0.00
2013-4-9,69,54,46,55,50,46,99,89,48,29.67,29.58,15,3,18,0.00
2013-4-10,72,61,50,58,55,49,99,82,48,29.78,29.68,12,4,14,0.00
2013-4-11,66,61,55,62,60,55,99,96,85,29.71,29.58,11,5,14,0.00
2013-4-12,77,61,53,64,55,47,99,84,39,29.81,29.64,11,3,11,0.00
2013-4-13,75,60,51,56,50,48,89,71,44,29.97,29.86,8,3,9,0.00
2013-4-14,81,68,51,46,41,37,60,41,25,29.99,29.93,13,6,13,0.00
2013-4-15,77,66,55,51,45,42,62,51,33,29.95,29.87,10,4,10,0.00
2013-4-16,65,60,51,60,57,48,96,90,68,29.91,29.89,5,2,5,0.00
2013-4-17,74,62,54,60,54,50,93,77,59,29.94,29.90,7,2,8,0.00
2013-4-18,79,65,53,50,46,40,81,56,28,29.90,29.84,12,5,14,0.00
2013-4-19,74,61,56,58,56,53,99,88,50,29.84,29.82,12,4,14,0.00
2013-4-20,68,59,50,49,47,44,81,65,44,29.94,29.83,11,5,15,0.00
2013-4-21,68,59,50,54,51,43,97,77,44,29.83,29.75,15,6,21,0.00
2013-4-22,73,62,51,54,51,48,99,73,45,29.82,29.75,8,3,8,0.09
2013-4-23,71,61,47,51,42,35,99,60,31,29.88,29.86,16,8,19,0.00
2013-4-24,63,60,52,55,54,51,96,81,74,29.91,29.81,21,12,22,0.00
2013-4-25,61,60,59,60,59,59,99,99,95,29.70,29.67,22,14,25,0.21
2013-4-26,69,63,60,64,62,60,99,96,81,29.59,29.52,10,3,11,0.21
2013-4-27,59,55,52,59,55,52,99,99,99,29.47,29.42,17,8,21,0.24
2013-4-28,64,57,53,63,56,53,99,99,96,29.44,29.07,23,15,23,0.14
2013-4-29,58,57,55,58,56,55,99,99,99,29.56,29.45,13,5,15,0.35
2013-4-30,71,61,47,55,51,46,99,75,45,29.73,29.63,15,6,16,0.00
2013-5-1,70,60,50,55,50,47,99,74,52,29.78,29.73,10,4,13,0.00
2013-5-2,72,60,52,55,52,50,96,77,54,29.77,29.72,9,4,11,0.00
2013-5-3,72,64,55,51,46,41,85,56,38,29.81,29.74,15,7,16,0.00
2013-5-4,74,65,52,52,49,40,91,60,35,29.84,29.79,10,6,15,0.00
2013-5-5,72,64,53,55,52,48,84,67,49,29.84,29.81,17,7,17,0.00
2013-5-6,71,64,51,62,57,50,99,79,68,29.86,29.80,13,7,15,0.00
2013-5-7,85,75,58,61,51,45,98,51,28,29.77,29.71,20,5,20,0.00
2013-5-8,82,74,59,64,58,54,82,61,43,29.72,29.67,9,3,9,0.00
2013-5-9,76,69,65,66,61,57,99,76,60,29.72,29.67,11,4,13,0.00
2013-5-10,76,68,62,63,57,53,81,70,47,29.80,29.70,17,6,17,0.00
2013-5-11,78,71,61,58,56,54,83,61,47,29.85,29.81,11,6,15,0.00
2013-5-12,73,66,55,59,56,54,98,73,58,29.91,29.85,15,6,17,0.00
2013-5-13,73,67,52,58,55,50,92,67,56,29.92,29.80,15,8,17,0.00
2013-5-14,79,68,60,61,58,55,93,72,47,29.72,29.47,11,5,13,0.00
2013-5-15,74,67,61,63,60,56,95,78,57,29.32,29.19,12,4,13,0.00
2013-5-16,62,60,58,60,53,43,99,80,57,29.36,29.17,16,9,21,0.33
2013-5-17,71,65,54,57,54,49,89,69,50,29.39,29.29,19,9,23,0.00
2013-5-18,70,66,62,60,49,42,91,57,39,29.61,29.36,18,9,18,0.00
2013-5-19,66,62,60,52,50,46,68,64,60,29.79,29.66,5,3,7,0.00
2013-5-20,65,59,54,52,50,49,85,75,62,29.77,29.76,7,4,8,0.00
2013-5-21,63,60,57,56,54,52,92,84,77,29.73,29.58,17,6,17,0.12
2013-5-22,72,66,61,56,52,50,82,62,50,29.62,29.60,12,6,15,0.01
2013-5-23,71,66,56,56,55,51,88,70,51,29.67,29.62,14,5,14,0.00
2013-5-24,71,65,58,50,45,39,74,52,39,29.76,29.64,19,10,21,0.00
2013-5-25,70,64,53,55,45,35,94,55,31,29.81,29.70,18,8,25,0.00
2013-5-26,70,66,54,53,51,49,88,61,52,29.85,29.71,13,6,15,0.00
2013-5-27,65,59,53,63,56,50,99,89,76,29.66,29.53,9,4,12,0.01
2013-5-28,78,69,54,59,50,44,99,59,32,29.55,29.45,21,9,22,0.01
2013-5-29,69,64,57,61,50,38,99,67,35,29.57,29.55,14,6,17,0.00
2013-6-3,70,67,65,58,57,55,79,71,60,29.77,29.74,9,6,9,0.00
2013-6-4,77,66,56,61,56,50,87,71,43,29.75,29.71,12,4,15,0.00
2013-6-5,78,70,58,52,50,49,73,53,40,29.73,29.65,10,4,10,0.00
2013-6-6,79,74,61,58,53,50,89,51,38,29.78,29.71,14,7,14,0.00
2013-6-7,77,70,60,64,59,53,90,69,55,29.80,29.71,13,6,17,0.00
2013-6-8,80,73,65,67,60,43,99,69,31,29.68,29.62,16,10,21,0.04
2013-6-9,75,69,65,64,57,55,97,69,55,29.62,29.58,15,7,15,0.00
2013-6-10,71,70,67,61,57,52,77,65,53,29.76,29.63,13,4,13,0.00
2013-6-11,75,70,61,68,64,56,90,83,76,29.80,29.77,17,6,18,0.00
2013-6-12,85,76,65,64,57,46,89,55,30,29.86,29.81,11,4,15,0.00
2013-6-13,86,73,63,62,58,54,78,63,37,29.82,29.77,9,3,9,0.00
2013-6-14,75,73,70,65,63,62,78,72,65,29.80,29.73,8,3,8,0.00
2013-6-15,90,78,65,58,53,41,59,46,22,29.76,29.71,7,3,8,0.00
2013-6-16,96,85,70,56,48,33,56,34,15,29.71,29.61,11,5,14,0.00
2013-6-17,95,84,71,73,64,52,98,54,34,29.55,29.47,14,5,15,0.00
2013-6-18,81,72,70,71,69,66,98,91,69,29.56,29.50,9,5,9,0.00
2013-6-19,87,74,64,64,55,41,97,61,24,29.73,29.58,13,5,15,0.00
2013-6-20,79,75,63,66,63,54,85,66,61,29.79,29.73,17,8,18,0.00
2013-6-21,85,77,70,65,64,62,76,65,53,29.83,29.77,11,5,11,0.00
2013-6-22,80,73,71,67,65,60,85,76,57,29.88,29.83,8,4,8,0.00
2013-6-23,74,68,62,66,63,60,95,86,73,29.86,29.83,7,4,8,0.00
2013-6-24,75,70,67,62,60,58,77,70,60,29.95,29.89,8,6,10,0.00
2013-6-25,76,72,65,61,60,60,82,67,58,29.94,29.90,13,6,13,0.00
2013-6-26,80,73,66,64,61,57,83,69,48,29.96,29.93,11,4,12,0.00
2013-6-27,83,74,61,60,57,50,72,57,40,29.94,29.86,13,6,15,0.00
2013-6-28,82,72,62,60,58,56,89,66,43,29.94,29.91,7,4,8,0.00
2013-6-29,84,69,62,59,58,55,89,71,40,29.98,29.93,14,4,14,0.00
2013-6-30,78,67,63,63,59,57,81,77,60,29.91,29.79,6,4,6,0.00
2013-7-1,88,70,63,69,63,59,90,80,41,29.77,29.72,11,3,11,0.00
2013-7-2,82,75,67,67,65,62,91,72,55,29.77,29.74,13,4,13,0.00
2013-7-3,87,82,75,70,68,66,84,66,52,29.81,29.75,7,4,10,0.00
2013-7-4,83,77,69,70,69,67,92,76,61,29.89,29.80,17,6,19,0.00
2013-7-5,88,79,66,67,64,56,98,64,46,29.92,29.85,12,5,16,0.00
2013-7-6,78,74,68,62,60,58,73,64,57,29.92,29.88,4,2,4,0.00
2013-7-7,92,86,78,69,62,51,73,50,28,29.89,29.84,9,4,11,0.00
2013-7-8,94,89,78,68,64,61,57,46,37,29.85,29.79,11,6,13,0.00
2013-7-9,89,84,77,72,66,61,86,59,42,29.81,29.73,16,5,16,0.00
2013-7-10,89,85,76,73,69,63,89,61,44,29.71,29.63,13,7,15,0.00
2013-7-11,88,82,72,72,70,67,94,70,52,29.65,29.59,12,4,14,0.01
2013-7-12,91,87,78,72,61,54,82,48,32,29.72,29.71,4,3,6,0.00
2013-7-13,78,76,74,71,64,55,81,68,47,29.77,29.73,4,1,6,0.00
2013-7-14,88,81,68,71,64,57,68,59,52,29.77,29.75,13,6,13,0.00
2013-7-15,96,86,70,73,63,52,84,52,26,29.83,29.78,15,7,16,0.00
2013-7-16,93,86,71,70,66,61,75,54,44,29.83,29.78,15,7,16,0.00
2013-7-17,97,83,72,62,61,58,71,54,32,29.82,29.81,8,3,8,0.00
2013-7-18,90,83,73,73,67,61,83,60,42,29.80,29.75,15,6,16,0.00
2013-7-19,94,85,71,73,69,61,86,61,36,29.76,29.68,12,6,15,0.00
2013-7-20,99,80,70,64,57,50,64,51,23,29.70,29.62,11,6,14,0.00
2013-7-21,93,88,72,71,67,61,83,52,43,29.71,29.66,11,6,15,0.00
2013-7-22,95,85,73,71,67,61,84,59,39,29.74,29.69,11,4,12,0.01
2013-7-23,88,80,71,74,70,65,88,74,55,29.70,29.67,14,5,16,0.00
2013-7-24,90,86,70,74,68,64,89,59,44,29.75,29.73,15,6,15,0.00
2013-7-25,97,90,70,72,63,51,83,47,26,29.77,29.68,12,6,13,0.00
2013-7-26,101,96,73,67,57,49,45,31,27,29.66,29.58,14,8,15,0.00
2013-7-27,100,89,78,80,71,67,98,60,37,29.55,29.51,7,3,7,0.00
2013-7-28,97,91,84,79,73,69,78,58,43,29.65,29.57,17,9,20,0.00
2013-7-29,93,87,79,74,63,52,78,51,28,29.91,29.74,16,10,17,0.00
2013-7-30,91,83,75,72,68,58,84,62,38,29.96,29.87,14,6,14,0.00
2013-7-31,96,86,69,74,65,58,87,56,32,29.84,29.75,8,3,11,0.00
2013-8-1,90,78,70,71,65,60,80,66,53,29.74,29.70,8,3,9,0.00
2013-8-2,93,92,90,67,65,63,48,44,41,29.76,29.74,8,5,9,0.00
2013-8-3,96,87,73,71,63,56,58,48,43,29.76,29.73,13,6,15,0.00
2013-8-4,99,89,77,70,63,54,54,45,26,29.82,29.77,12,6,15,0.00
2013-8-5,97,87,74,77,68,58,89,57,38,29.74,29.67,11,5,13,0.00
2013-8-6,96,89,80,80,73,62,99,66,37,29.66,29.56,11,6,14,0.00
2013-8-7,90,86,81,80,80,79,97,83,70,29.54,29.49,15,7,17,0.00
2013-8-8,88,80,76,71,62,51,85,56,31,29.84,29.57,12,7,17,0.00
2013-8-9,88,81,70,62,58,55,74,49,37,29.88,29.83,17,7,17,0.00
2013-8-10,89,81,69,70,65,60,79,62,42,29.85,29.79,9,3,15,0.00
2013-8-11,92,84,71,69,67,64,91,60,44,29.81,29.75,17,6,17,0.00
2013-8-12,93,90,80,74,69,64,81,53,42,29.76,29.67,12,4,14,0.00
2013-8-13,96,86,71,71,64,54,86,53,31,29.72,29.68,13,6,14,0.00
2013-8-14,93,89,80,69,64,61,65,46,38,29.77,29.74,14,7,16,0.00
2013-8-15,90,79,70,72,69,67,89,74,52,29.80,29.77,14,4,14,0.00
2013-8-16,92,84,72,75,70,65,90,66,43,29.79,29.72,13,5,17,0.00
2013-8-17,91,86,79,73,72,69,83,64,51,29.77,29.75,9,3,9,0.00
2013-8-18,92,86,73,73,71,68,98,63,50,29.78,29.72,8,4,9,0.00
2013-8-19,97,86,72,73,70,63,99,63,35,29.78,29.76,11,6,14,0.00
2013-8-20,91,82,75,71,66,60,81,61,40,29.84,29.80,15,7,17,0.00
2013-8-21,90,76,65,65,57,52,67,56,32,29.83,29.77,11,4,16,0.00
2013-8-22,92,81,68,67,64,56,80,59,34,29.74,29.67,13,5,13,0.00
2013-8-23,89,82,69,73,70,65,88,68,56,29.69,29.65,10,6,15,0.00
2013-8-24,87,78,69,73,68,66,97,76,52,29.68,29.62,11,4,12,0.00
2013-8-25,82,78,75,72,68,64,86,74,59,29.66,29.55,9,3,11,0.01
2013-8-26,75,72,69,75,72,69,99,99,99,29.60,29.52,10,5,12,0.38
2013-8-27,87,77,67,73,68,66,99,76,53,29.68,29.62,15,4,15,1.26
2013-8-28,87,77,69,70,64,62,99,70,46,29.77,29.68,11,8,14,0.02
2013-8-29,86,78,69,64,62,58,81,62,42,29.79,29.73,16,6,19,0.00
2013-8-30,81,75,66,64,62,60,81,66,54,29.82,29.74,9,4,9,0.00
2013-8-31,83,75,67,64,59,56,87,60,45,29.86,29.80,13,5,15,0.00
2013-9-1,88,78,69,66,61,49,84,60,29,29.88,29.83,21,7,21,0.00
2013-9-2,86,79,65,64,62,61,85,60,46,29.91,29.86,16,8,17,0.00
2013-9-3,89,78,66,69,64,58,98,67,41,29.90,29.83,17,6,17,0.00
2013-9-4,89,84,68,69,68,66,99,61,49,29.88,29.77,13,6,14,0.00
2013-9-5,88,78,65,66,64,59,93,65,43,29.74,29.62,14,6,14,0.00
2013-9-6,87,84,68,70,68,66,99,61,54,29.64,29.60,15,8,15,0.00
2013-9-7,82,78,70,71,69,67,95,77,64,29.75,29.72,11,4,11,0.00
2013-9-8,88,81,73,75,72,70,99,77,57,29.83,29.76,11,5,17,0.02
2013-9-9,81,74,70,72,70,69,99,89,68,29.90,29.87,12,4,14,0.00
2013-9-10,88,76,68,71,68,65,99,81,51,29.83,29.77,14,3,15,0.00
2013-9-11,77,69,64,73,66,62,99,91,70,29.81,29.76,15,6,19,0.72
2013-9-12,73,68,64,68,64,63,99,90,73,29.87,29.82,5,3,6,0.00
2013-9-13,84,75,62,67,64,62,99,73,54,29.92,29.87,12,6,15,0.00
2013-9-14,86,71,65,67,65,60,99,84,45,29.88,29.77,8,3,9,0.00
2013-9-15,89,83,70,74,71,67,96,69,50,29.69,29.61,11,5,14,0.00
2013-9-16,86,76,65,73,69,65,99,83,62,29.66,29.54,11,5,15,0.00
2013-9-17,79,73,67,68,66,63,99,78,63,29.63,29.56,11,5,11,0.01
2013-9-18,86,71,63,68,65,63,99,85,54,29.67,29.66,8,3,8,0.00
2013-9-19,84,76,64,66,63,60,88,67,50,29.70,29.60,11,5,13,0.00
2013-9-20,87,78,66,68,66,63,93,69,54,29.85,29.74,8,4,11,0.00
2013-9-21,82,69,63,68,65,59,99,88,63,29.94,29.86,5,2,6,0.57
2013-9-22,71,65,60,68,63,59,99,94,80,29.95,29.92,4,2,5,0.01
2013-9-23,86,76,61,65,62,60,95,66,46,29.88,29.81,8,4,10,0.00
2013-9-24,87,70,63,66,64,63,99,84,49,29.77,29.75,4,3,5,0.00
2013-9-25,78,76,74,66,65,65,73,70,67,29.68,29.66,6,5,8,0.00
2013-9-26,86,75,64,70,67,63,99,80,60,29.71,29.69,10,5,10,0.00
2013-9-27,92,74,62,68,62,48,76,68,29,29.65,29.57,7,3,8,0.00
2013-9-28,86,78,71,72,70,68,94,78,56,29.49,29.48,9,5,97,0.00
2013-9-29,75,73,72,63,62,62,75,70,64,29.48,29.43,4,2,5,0.00
2013-9-30,84,75,65,65,63,62,91,70,51,29.47,29.43,10,4,15,0.00
2013-10-1,87,81,69,73,70,65,88,72,58,29.52,29.50,17,5,17,0.00
2013-10-2,87,73,68,74,68,65,91,87,65,29.58,29.54,10,2,12,0.00
2013-10-3,86,80,73,73,71,70,92,76,61,29.66,29.57,14,8,14,0.00
2013-10-4,81,76,74,75,73,72,95,89,82,29.71,29.61,8,4,11,0.00
2013-10-5,75,72,70,69,64,61,82,75,73,29.89,29.77,8,4,9,0.00
2013-10-6,78,68,62,63,60,57,87,79,51,29.90,29.86,10,3,10,0.07
2013-10-7,73,67,64,61,60,59,89,81,62,29.87,29.84,4,3,6,0.01
2013-10-8,83,66,58,61,57,54,93,74,49,29.91,29.87,4,3,6,0.00
2013-10-9,78,74,68,65,60,58,81,65,53,29.89,29.79,10,4,10,0.00
2013-10-11,61,61,61,56,56,56,85,85,85,29.65,29.63,11,8,15,0.00
2013-10-12,75,71,64,64,62,58,88,74,67,29.77,29.74,7,4,8,0.00
2013-10-13,82,75,62,67,65,62,99,74,58,29.82,29.77,11,5,11,0.00
2013-10-14,80,62,60,66,59,58,96,93,63,29.80,29.78,8,3,11,0.00
2013-10-15,78,75,66,67,63,60,87,68,57,29.79,29.71,8,5,13,0.00
2013-10-16,64,63,63,61,60,60,91,90,89,29.75,29.74,4,2,4,0.00
2013-10-17,82,72,64,68,64,60,89,76,62,29.83,29.77,11,5,11,0.00
2013-10-18,86,73,65,65,64,63,99,80,48,29.72,29.66,9,4,10,0.00
2013-10-19,86,71,67,69,65,63,89,84,51,29.75,29.68,5,2,6,0.00
2013-10-20,80,72,65,69,68,65,99,86,69,29.78,29.74,8,3,8,0.00
2013-10-21,66,64,63,66,64,63,99,99,99,29.79,29.77,4,3,4,0.00
2013-10-22,75,70,64,70,67,62,96,90,81,29.63,29.60,4,2,7,0.00
2013-10-23,74,70,70,70,68,63,99,93,70,29.69,29.61,7,2,7,0.00
2013-10-24,82,72,61,68,63,58,92,76,60,29.75,29.71,11,4,11,0.00
2013-10-25,87,73,64,63,62,62,92,74,47,29.70,29.65,11,5,12,0.00
2013-10-26,86,74,69,71,67,63,86,79,60,29.72,29.68,7,4,8,0.00
2013-10-27,91,85,65,71,67,64,99,60,43,29.91,29.86,9,4,9,0.00
2013-10-28,78,71,64,69,67,62,98,86,74,29.80,29.68,8,4,9,0.00
2013-10-29,74,64,58,69,62,58,99,95,73,29.75,29.61,20,6,23,0.73
2013-10-30,70,63,61,47,44,41,60,52,41,29.81,29.72,14,6,18,0.00
2013-10-31,73,62,51,50,48,44,83,64,39,29.92,29.84,15,4,17,0.00
2013-11-1,77,66,57,56,52,45,83,63,38,29.92,29.84,12,4,15,0.00
2013-11-2,77,68,57,64,60,56,99,76,55,29.79,29.73,9,3,9,0.00
2013-11-3,64,60,58,59,58,58,99,95,82,29.76,29.70,4,2,5,0.00
2013-11-4,71,65,59,63,58,45,99,80,45,29.60,29.40,23,6,29,0.02
2013-11-5,77,73,67,59,55,54,68,57,46,29.59,29.49,36,12,38,0.04
2013-11-6,73,68,63,61,58,53,83,71,57,29.80,29.65,15,5,15,0.00
2013-11-7,79,67,59,68,63,56,98,88,70,29.78,29.74,11,4,13,0.00
2013-11-8,76,66,60,66,58,53,99,77,48,29.75,29.68,10,3,10,0.00
2013-11-9,71,64,56,59,54,47,85,72,54,29.89,29.78,15,4,15,0.00
2013-11-10,72,67,63,50,48,44,58,52,40,29.84,29.73,27,12,31,0.00
2013-11-11,63,60,59,55,52,46,79,75,60,29.83,29.79,4,1,4,0.00
2013-11-12,72,60,56,36,26,21,34,30,26,29.81,29.78,12,3,15,0.00
2013-11-13,66,58,51,61,51,45,88,79,58,29.83,29.78,5,2,8,0.01
2013-11-14,68,60,54,64,57,51,99,90,83,29.90,29.85,7,2,7,0.22
2013-11-15,57,50,47,48,45,43,96,85,61,29.75,29.69,21,8,27,0.25
2013-11-16,59,54,50,55,53,50,99,97,85,29.67,29.51,11,4,12,0.65
2013-11-17,54,51,48,54,51,48,99,99,99,29.69,29.47,5,2,5,0.44
2013-11-18,57,54,51,51,50,50,99,90,78,29.32,29.18,7,2,9,0.40
2013-11-19,63,56,54,54,52,50,98,88,71,29.50,29.11,22,11,27,1.12
2013-11-20,52,49,44,48,45,42,92,86,76,29.66,29.55,12,4,17,0.39
2013-11-21,58,54,49,41,38,34,71,56,43,29.50,29.31,15,6,16,0.01
2013-11-22,54,51,47,42,38,31,78,62,48,29.43,29.26,28,11,28,0.15
2013-11-23,54,46,44,42,40,39,83,79,64,29.48,29.43,10,4,15,0.00
2013-11-24,60,56,49,41,40,38,75,57,47,29.58,29.53,11,6,13,0.00
2013-11-25,49,47,45,47,46,44,99,96,89,29.86,29.72,6,2,8,0.08
2013-11-26,51,46,44,38,36,35,76,69,59,29.94,29.86,5,2,6,0.00
2013-11-27,46,43,40,44,40,37,99,89,72,29.94,29.88,5,2,6,0.12
2013-11-28,48,43,40,46,40,37,95,88,74,30.07,29.99,11,3,14,0.09
2013-11-29,48,42,38,44,41,38,99,95,78,30.02,29.96,15,3,15,0.00
2013-11-30,46,41,38,46,41,38,99,99,99,29.81,29.75,3,1,4,0.00
2013-12-1,59,54,50,48,43,40,74,69,59,29.70,29.63,23,9,27,0.09
2013-12-2,54,51,47,43,40,37,83,69,54,29.85,29.73,11,4,15,0.00
2013-12-3,65,59,56,56,55,53,94,86,70,29.96,29.86,14,8,15,0.00
2013-12-4,67,50,44,45,42,38,89,75,41,30.02,29.99,8,4,8,0.00
2013-12-5,67,48,39,47,40,33,86,75,41,30.01,29.96,12,4,12,0.00
2013-12-6,53,48,43,47,43,41,99,84,72,29.98,29.95,5,3,6,0.00
2013-12-7,73,53,39,41,37,28,90,63,24,29.98,29.93,6,3,7,0.00
2013-12-8,70,55,41,49,46,41,99,76,43,30.12,30.02,7,2,8,0.00
2013-12-9,71,49,43,47,45,40,99,90,36,30.17,30.14,5,3,6,0.00
2013-12-10,60,49,42,49,45,42,99,85,57,30.25,30.17,5,2,5,0.00
2013-12-11,61,47,44,51,45,43,99,93,67,30.24,30.19,4,3,7,0.00
2013-12-12,60,48,46,51,48,46,99,98,73,30.17,29.77,5,3,5,0.00
2013-12-13,58,49,42,49,46,41,99,88,69,30.04,29.96,7,3,7,0.00
2013-12-14,68,55,43,47,44,40,99,74,41,30.23,30.12,12,5,14,0.00
2013-12-15,73,57,41,54,43,37,99,66,35,30.22,30.17,10,2,10,0.00
2013-12-16,72,57,44,50,48,43,97,76,43,30.19,30.13,8,3,10,0.00
2013-12-17,64,53,51,53,52,50,99,94,67,30.12,30.10,7,3,8,0.00
2013-12-18,56,51,45,50,48,44,99,90,77,30.00,29.93,4,2,4,0.00
2013-12-19,60,56,54,59,56,54,99,98,86,29.81,29.54,18,5,18,0.37
2013-12-20,56,54,53,51,49,44,91,84,67,30.06,29.57,19,11,23,0.15
2013-12-21,68,55,51,57,52,50,99,90,62,30.19,30.12,9,3,9,27.21
2013-12-22,68,54,51,60,53,50,99,94,60,30.16,30.08,4,2,4,0.00
2013-12-23,58,52,45,52,49,45,99,89,79,30.05,29.93,4,2,6,0.01
2013-12-24,59,59,57,54,53,52,87,81,78,29.80,29.62,15,9,16,0.00
2013-12-25,61,60,57,57,57,56,99,89,86,29.37,29.13,15,9,20,0.47
2013-12-26,58,55,53,34,29,26,46,40,32,29.60,29.32,40,22,43,0.17
2013-12-27,57,53,48,53,48,40,93,84,70,29.65,29.60,4,2,8,0.00
2013-12-28,58,55,51,53,44,37,99,70,50,29.74,29.53,13,5,13,0.00
2013-12-29,58,49,44,41,38,35,78,69,44,30.04,29.88,15,3,15,0.00
2013-12-30,60,44,39,38,37,36,93,79,43,30.03,29.67,15,4,15,0.00
2013-12-31,52,43,41,42,41,40,98,93,64,29.88,29.79,4,2,4,0.00
2014-1-1,54,46,42,45,43,41,95,92,73,29.79,29.74,3,2,3,0.00
2014-1-2,63,57,56,55,54,48,97,90,59,29.70,29.64,8,4,8,0.00